This is the latest recevied weather packets stored in our database for station/object KA3ZXO. If no packets are shown the sender has not sent any weather packets the latest 10 day(s).
| Time | Temp. | Humidity | Pressure | Rain* | Wind** | Luminosity | Snow |
|---|---|---|---|---|---|---|---|
| 1777645342 | 12.78° C | 53% | 1015.6 hPa | 0 mm | - | 26 W/m² | - |
| 1777644741 | 12.78° C | 58% | 1015.9 hPa | 0 mm | - | 25 W/m² | - |
| 1777644140 | 12.22° C | 55% | 1015.6 hPa | 0 mm | - | 24 W/m² | - |
| 1777643540 | 12.22° C | 60% | 1015.6 hPa | 0 mm | - | 23 W/m² | - |
| 1777642938 | 11.67° C | 58% | 1015.8 hPa | 0 mm | - | 22 W/m² | - |
| 1777642338 | 11.67° C | 60% | 1015.8 hPa | 0 mm | - | 22 W/m² | - |
| 1777641736 | 11.67° C | 62% | 1015.8 hPa | 0 mm | - | 21 W/m² | - |
| 1777641133 | 11.11° C | 65% | 1015.8 hPa | 0 mm | - | 20 W/m² | - |
| 1777640532 | 11.11° C | 65% | 1015.9 hPa | 0 mm | - | 20 W/m² | - |
| 1777639931 | 10.56° C | 67% | 1016 hPa | 0 mm | - | 19 W/m² | - |
| 1777639330 | 10.56° C | 69% | 1015.8 hPa | 0 mm | - | 18 W/m² | - |
| 1777638729 | 10.56° C | 70% | 1015.9 hPa | 0 mm | - | 17 W/m² | - |
| 1777638128 | 10° C | 71% | 1015.8 hPa | 0 mm | - | 16 W/m² | - |
| 1777637526 | 9.44° C | 73% | 1015.8 hPa | 0 mm | - | 15 W/m² | - |
| 1777636920 | 9.44° C | 77% | 1015.8 hPa | 0 mm | - | 14 W/m² | - |
| 1777636318 | 8.89° C | 77% | 1015.8 hPa | 0 mm | - | 13 W/m² | - |
| 1777635715 | 8.33° C | 81% | 1015.8 hPa | 0 mm | - | 13 W/m² | - |
| 1777635114 | 7.78° C | 83% | 1015.9 hPa | 0 mm | - | 12 W/m² | - |
| 1777634513 | 7.22° C | 85% | 1015.6 hPa | 0 mm | - | 11 W/m² | - |
| 1777633911 | 7.22° C | 86% | 1015.6 hPa | 0 mm | - | 10 W/m² | - |
| 1777633307 | 7.22° C | 85% | 1015.4 hPa | 0 mm | - | 9 W/m² | - |
| 1777632706 | 7.22° C | 85% | 1015.4 hPa | 0 mm | - | 8 W/m² | - |
| 1777632106 | 7.22° C | 84% | 1015.2 hPa | 0 mm | - | 6 W/m² | - |
| 1777631502 | 7.78° C | 82% | 1015.2 hPa | 0 mm | - | 4 W/m² | - |
| 1777630902 | 7.78° C | 78% | 1015.1 hPa | 0 mm | - | 3 W/m² | - |
* Rain latest hour (hover to see other rain measurements)
** Current wind speed in m/s (hover to see current wind gust speed)